P/2010 B2 ( WISE ) 2020

Japanese version
Home page
Updated on August 28, 2020

---------------------------------------------------------------------

* Profile

* Orbital Elements

Epoch 2020 Dec. 17.0 TT = JDT 2459200.5                                         
T 2020 Dec. 5.36944 TT                                  Rudenko                 
q   1.6175158            (2000.0)            P               Q                  
n   0.17967924     Peri.  155.91930     -0.91883904     -0.39462581             
a   3.1103131      Node     0.84828     +0.33217758     -0.77655382             
e   0.4799508      Incl.    8.93085     +0.21305603     -0.49115643             
P   5.49                                                                        
From 52 observations 2010 Jan. 22-2015 June 3, mean residual 0".5.              

* Magnitudes Graph

        m1 = 17.0 + 5 log d + 10.0 log r

---------------------------------------------------------------------

The orbital elements are published on M.P.E.C. 2020-Q175.
The magnitudes graphs are made with Comet for Windows.

---------------------------------------------------------------------

Copyright(C) Seiichi Yoshida (comet@aerith.net). All rights reserved.